contact:dominique.lefevre@mio.osupytheas.fr, maurice.libes@osupytheas.fr, didier.mallarino@osupytheas.fr
Project:EMSO http://www.emso-fr.org/EMSO-France
Depth: 2436.0 m
Title:EMSO Ligure Ouest : Data MII capteur MICROCAT
DateTime_Computer,Latitude,Longitude,Temperature,Conductivity,Pressure,DateTime_Instrument
DateTime_Computer,Latitude,Longitude,degC,S m-1,dbar,DateTime_Instrument
2023-05-13T00:00:29Z,42.805,6.029,13.3017,4.60075,2470.81,2023-5-13T02:03:41Z
2023-05-13T00:03:32Z,42.805,6.029,13.3019,4.60084,2470.763,2023-5-13T02:06:44Z
2023-05-13T00:06:35Z,42.805,6.029,13.3020,4.60078,2470.787,2023-5-13T02:09:47Z
2023-05-13T00:09:38Z,42.805,6.029,13.3017,4.60079,2470.787,2023-5-13T02:12:50Z
2023-05-13T00:12:41Z,42.805,6.029,13.3015,4.60076,2470.787,2023-5-13T02:15:53Z
2023-05-13T00:15:44Z,42.805,6.029,13.3019,4.60079,2470.787,2023-5-13T02:18:56Z
2023-05-13T00:18:47Z,42.805,6.029,13.3016,4.60080,2470.796,2023-5-13T02:21:59Z
2023-05-13T00:21:50Z,42.805,6.029,13.3014,4.60076,2470.824,2023-5-13T02:25:02Z
2023-05-13T00:24:53Z,42.805,6.029,13.3015,4.60081,2470.8,2023-5-13T02:28:06Z
2023-05-13T00:27:56Z,42.805,6.029,13.3015,4.60076,2470.81,2023-5-13T02:31:09Z
2023-05-13T00:31:00Z,42.805,6.029,13.3019,4.60078,2470.824,2023-5-13T02:34:12Z
2023-05-13T00:34:03Z,42.805,6.029,13.3014,4.60077,2470.787,2023-5-13T02:37:15Z
2023-05-13T00:37:06Z,42.805,6.029,13.3018,4.60078,2470.824,2023-5-13T02:40:18Z
2023-05-13T00:40:09Z,42.805,6.029,13.3015,4.60079,2470.787,2023-5-13T02:43:21Z
2023-05-13T00:43:12Z,42.805,6.029,13.3019,4.60076,2470.824,2023-5-13T02:46:24Z
2023-05-13T00:46:15Z,42.805,6.029,13.3017,4.60077,2470.787,2023-5-13T02:49:27Z
2023-05-13T00:49:18Z,42.805,6.029,13.3015,4.60079,2470.787,2023-5-13T02:52:30Z
2023-05-13T00:52:21Z,42.805,6.029,13.3016,4.60075,2470.824,2023-5-13T02:55:33Z
2023-05-13T00:55:24Z,42.805,6.029,13.3014,4.60075,2470.787,2023-5-13T02:58:36Z
2023-05-13T00:58:27Z,42.805,6.029,13.3015,4.60075,2470.787,2023-5-13T03:01:39Z
2023-05-13T01:01:30Z,42.805,6.029,13.3017,4.60074,2470.81,2023-5-13T03:04:42Z
2023-05-13T01:04:33Z,42.805,6.029,13.3018,4.60074,2470.763,2023-5-13T03:07:46Z
2023-05-13T01:07:37Z,42.805,6.029,13.3014,4.60074,2470.787,2023-5-13T03:10:49Z
2023-05-13T01:10:40Z,42.805,6.029,13.3015,4.60074,2470.787,2023-5-13T03:13:52Z
2023-05-13T01:13:43Z,42.805,6.029,13.3018,4.60078,2470.8,2023-5-13T03:16:55Z
2023-05-13T01:16:46Z,42.805,6.029,13.3016,4.60076,2470.81,2023-5-13T03:19:58Z
2023-05-13T01:19:49Z,42.805,6.029,13.3014,4.60083,2470.81,2023-5-13T03:23:01Z
2023-05-13T01:22:52Z,42.805,6.029,13.3018,4.60077,2470.81,2023-5-13T03:26:04Z
2023-05-13T01:25:55Z,42.805,6.029,13.3017,4.60079,2470.8,2023-5-13T03:29:07Z
2023-05-13T01:28:58Z,42.805,6.029,13.3019,4.60085,2470.787,2023-5-13T03:32:10Z
2023-05-13T01:32:01Z,42.805,6.029,13.3014,4.60076,2470.787,2023-5-13T03:35:13Z
2023-05-13T01:35:04Z,42.805,6.029,13.3015,4.60076,2470.81,2023-5-13T03:38:16Z
2023-05-13T01:38:07Z,42.805,6.029,13.3020,4.60077,2470.81,2023-5-13T03:41:19Z
2023-05-13T01:41:10Z,42.805,6.029,13.3018,4.60077,2470.824,2023-5-13T03:44:23Z
2023-05-13T01:44:14Z,42.805,6.029,13.3019,4.60078,2470.787,2023-5-13T03:47:26Z
2023-05-13T01:47:17Z,42.805,6.029,13.3017,4.60078,2470.833,2023-5-13T03:50:29Z
2023-05-13T01:50:20Z,42.805,6.029,13.3015,4.60078,2470.847,2023-5-13T03:53:32Z
2023-05-13T01:53:23Z,42.805,6.029,13.3014,4.60076,2470.8,2023-5-13T03:56:35Z
2023-05-13T01:56:26Z,42.805,6.029,13.3014,4.60075,2470.81,2023-5-13T03:59:38Z
2023-05-13T01:59:29Z,42.805,6.029,13.3021,4.60077,2470.81,2023-5-13T04:02:41Z
2023-05-13T02:02:32Z,42.805,6.029,13.3020,4.60078,2470.824,2023-5-13T04:05:44Z
2023-05-13T02:05:35Z,42.805,6.029,13.3017,4.60074,2470.81,2023-5-13T04:08:47Z
2023-05-13T02:08:38Z,42.805,6.029,13.3017,4.60077,2470.824,2023-5-13T04:11:50Z
2023-05-13T02:11:41Z,42.805,6.029,13.3016,4.60079,2470.787,2023-5-13T04:14:53Z
2023-05-13T02:14:44Z,42.805,6.029,13.3016,4.60078,2470.787,2023-5-13T04:17:57Z
2023-05-13T02:17:47Z,42.805,6.029,13.3015,4.60076,2470.824,2023-5-13T04:21:00Z
2023-05-13T02:20:50Z,42.805,6.029,13.3014,4.60075,2470.787,2023-5-13T04:24:03Z
2023-05-13T02:23:54Z,42.805,6.029,13.3016,4.60076,2470.787,2023-5-13T04:27:06Z
2023-05-13T02:26:57Z,42.805,6.029,13.3015,4.60074,2470.796,2023-5-13T04:30:09Z
2023-05-13T02:30:00Z,42.805,6.029,13.3018,4.60076,2470.787,2023-5-13T04:33:12Z
2023-05-13T02:33:03Z,42.805,6.029,13.3015,4.60075,2470.824,2023-5-13T04:36:15Z
2023-05-13T02:36:06Z,42.805,6.029,13.3015,4.60075,2470.81,2023-5-13T04:39:18Z
2023-05-13T02:39:09Z,42.805,6.029,13.3015,4.60078,2470.763,2023-5-13T04:42:21Z
2023-05-13T02:42:12Z,42.805,6.029,13.3015,4.60076,2470.787,2023-5-13T04:45:24Z
2023-05-13T02:45:15Z,42.805,6.029,13.3014,4.60075,2470.8,2023-5-13T04:48:27Z
2023-05-13T02:48:18Z,42.805,6.029,13.3014,4.60075,2470.824,2023-5-13T04:51:30Z
2023-05-13T02:51:21Z,42.805,6.029,13.3019,4.60075,2470.8,2023-5-13T04:54:34Z
2023-05-13T02:54:24Z,42.805,6.029,13.3015,4.60075,2470.8,2023-5-13T04:57:37Z
2023-05-13T02:57:27Z,42.805,6.029,13.3017,4.60077,2470.824,2023-5-13T05:00:40Z
2023-05-13T03:00:31Z,42.805,6.029,13.3016,4.60077,2470.8,2023-5-13T05:03:43Z
2023-05-13T03:03:34Z,42.805,6.029,13.3015,4.60076,2470.8,2023-5-13T05:06:46Z
2023-05-13T03:06:37Z,42.805,6.029,13.3020,4.60075,2470.8,2023-5-13T05:09:49Z
2023-05-13T03:09:40Z,42.805,6.029,13.3019,4.60079,2470.81,2023-5-13T05:12:52Z
2023-05-13T03:12:43Z,42.805,6.029,13.3017,4.60075,2470.824,2023-5-13T05:15:55Z
2023-05-13T03:15:46Z,42.805,6.029,13.3017,4.60077,2470.8,2023-5-13T05:18:58Z
2023-05-13T03:18:49Z,42.805,6.029,13.3016,4.60075,2470.81,2023-5-13T05:22:01Z
2023-05-13T03:21:52Z,42.805,6.029,13.3017,4.60075,2470.81,2023-5-13T05:25:04Z
2023-05-13T03:24:55Z,42.805,6.029,13.3016,4.60074,2470.8,2023-5-13T05:28:07Z
2023-05-13T03:27:58Z,42.805,6.029,13.3015,4.60075,2470.824,2023-5-13T05:31:10Z
2023-05-13T03:31:01Z,42.805,6.029,13.3015,4.60075,2470.8,2023-5-13T05:34:14Z
2023-05-13T03:34:04Z,42.805,6.029,13.3018,4.60077,2470.8,2023-5-13T05:37:17Z
2023-05-13T03:37:08Z,42.805,6.029,13.3015,4.60074,2470.81,2023-5-13T05:40:20Z
2023-05-13T03:40:11Z,42.805,6.029,13.3012,4.60074,2470.8,2023-5-13T05:43:23Z
2023-05-13T03:43:14Z,42.805,6.029,13.3015,4.60076,2470.75,2023-5-13T05:46:26Z
2023-05-13T03:46:17Z,42.805,6.029,13.3016,4.60075,2470.777,2023-5-13T05:49:29Z
2023-05-13T03:49:20Z,42.805,6.029,13.3016,4.60075,2470.8,2023-5-13T05:52:32Z
2023-05-13T03:52:23Z,42.805,6.029,13.3017,4.60075,2470.8,2023-5-13T05:55:35Z
2023-05-13T03:55:26Z,42.805,6.029,13.3018,4.60074,2470.777,2023-5-13T05:58:38Z
2023-05-13T03:58:29Z,42.805,6.029,13.3016,4.60076,2470.8,2023-5-13T06:01:41Z
2023-05-13T04:01:32Z,42.805,6.029,13.3019,4.60076,2470.8,2023-5-13T06:04:44Z
2023-05-13T04:04:35Z,42.805,6.029,13.3017,4.60075,2470.81,2023-5-13T06:07:47Z
2023-05-13T04:07:38Z,42.805,6.029,13.3016,4.60077,2470.777,2023-5-13T06:10:51Z
2023-05-13T04:10:41Z,42.805,6.029,13.3015,4.60077,2470.787,2023-5-13T06:13:54Z
2023-05-13T04:13:44Z,42.805,6.029,13.3014,4.60075,2470.763,2023-5-13T06:16:57Z
2023-05-13T04:16:48Z,42.805,6.029,13.3021,4.60075,2470.763,2023-5-13T06:20:00Z
2023-05-13T04:19:51Z,42.805,6.029,13.3017,4.60074,2470.777,2023-5-13T06:23:03Z
2023-05-13T04:22:54Z,42.805,6.029,13.3015,4.60074,2470.74,2023-5-13T06:26:06Z
2023-05-13T04:25:57Z,42.805,6.029,13.3018,4.60074,2470.8,2023-5-13T06:29:09Z
2023-05-13T04:29:00Z,42.805,6.029,13.3017,4.60076,2470.763,2023-5-13T06:32:12Z
2023-05-13T04:32:03Z,42.805,6.029,13.3015,4.60077,2470.763,2023-5-13T06:35:15Z
2023-05-13T04:35:06Z,42.805,6.029,13.3014,4.60076,2470.74,2023-5-13T06:38:18Z
2023-05-13T04:38:09Z,42.805,6.029,13.3013,4.60076,2470.763,2023-5-13T06:41:21Z
2023-05-13T04:41:12Z,42.805,6.029,13.3015,4.60076,2470.754,2023-5-13T06:44:24Z
2023-05-13T04:44:15Z,42.805,6.029,13.3015,4.60076,2470.763,2023-5-13T06:47:28Z
2023-05-13T04:47:18Z,42.805,6.029,13.3015,4.60074,2470.8,2023-5-13T06:50:31Z
2023-05-13T04:50:21Z,42.805,6.029,13.3018,4.60074,2470.763,2023-5-13T06:53:34Z
2023-05-13T04:53:25Z,42.805,6.029,13.3015,4.60074,2470.777,2023-5-13T06:56:37Z
2023-05-13T04:56:28Z,42.805,6.029,13.3015,4.60077,2470.777,2023-5-13T06:59:40Z
2023-05-13T04:59:31Z,42.805,6.029,13.3019,4.60074,2470.754,2023-5-13T07:02:43Z
2023-05-13T05:02:34Z,42.805,6.029,13.3015,4.60075,2470.754,2023-5-13T07:05:46Z
2023-05-13T05:05:37Z,42.805,6.029,13.3015,4.60077,2470.74,2023-5-13T07:08:49Z
2023-05-13T05:08:40Z,42.805,6.029,13.3017,4.60073,2470.777,2023-5-13T07:11:52Z
2023-05-13T05:11:43Z,42.805,6.029,13.3013,4.60074,2470.763,2023-5-13T07:14:55Z
2023-05-13T05:14:46Z,42.805,6.029,13.3015,4.60074,2470.726,2023-5-13T07:17:58Z
2023-05-13T05:17:49Z,42.805,6.029,13.3020,4.60076,2470.777,2023-5-13T07:21:01Z
2023-05-13T05:20:52Z,42.805,6.029,13.3018,4.60076,2470.754,2023-5-13T07:24:05Z
2023-05-13T05:23:55Z,42.805,6.029,13.3017,4.60074,2470.74,2023-5-13T07:27:08Z
2023-05-13T05:26:58Z,42.805,6.029,13.3012,4.60077,2470.74,2023-5-13T07:30:11Z
2023-05-13T05:30:02Z,42.805,6.029,13.3016,4.60074,2470.73,2023-5-13T07:33:14Z
2023-05-13T05:33:05Z,42.805,6.029,13.3015,4.60077,2470.754,2023-5-13T07:36:17Z
2023-05-13T05:36:08Z,42.805,6.029,13.3017,4.60076,2470.73,2023-5-13T07:39:20Z
2023-05-13T05:39:11Z,42.805,6.029,13.3015,4.60076,2470.74,2023-5-13T07:42:23Z
2023-05-13T05:42:14Z,42.805,6.029,13.3018,4.60074,2470.717,2023-5-13T07:45:26Z
2023-05-13T05:45:17Z,42.805,6.029,13.3016,4.60076,2470.717,2023-5-13T07:48:29Z
2023-05-13T05:48:20Z,42.805,6.029,13.3015,4.60081,2470.707,2023-5-13T07:51:32Z
2023-05-13T05:51:23Z,42.805,6.029,13.3019,4.60080,2470.717,2023-5-13T07:54:35Z
2023-05-13T05:54:26Z,42.805,6.029,13.3016,4.60078,2470.67,2023-5-13T07:57:38Z
2023-05-13T05:57:29Z,42.805,6.029,13.3016,4.60081,2470.754,2023-5-13T08:00:42Z
2023-05-13T06:00:32Z,42.805,6.029,13.3014,4.60077,2470.693,2023-5-13T08:03:45Z
2023-05-13T06:03:35Z,42.805,6.029,13.3015,4.60076,2470.73,2023-5-13T08:06:48Z
2023-05-13T06:06:39Z,42.805,6.029,13.3013,4.60078,2470.74,2023-5-13T08:09:51Z
2023-05-13T06:09:42Z,42.805,6.029,13.3015,4.60079,2470.74,2023-5-13T08:12:54Z
2023-05-13T06:12:45Z,42.805,6.029,13.3017,4.60077,2470.754,2023-5-13T08:15:57Z
2023-05-13T06:15:48Z,42.805,6.029,13.3018,4.60074,2470.73,2023-5-13T08:19:00Z
2023-05-13T06:18:51Z,42.805,6.029,13.3021,4.60075,2470.717,2023-5-13T08:22:03Z
2023-05-13T06:21:54Z,42.805,6.029,13.3014,4.60078,2470.754,2023-5-13T08:25:06Z
2023-05-13T06:24:57Z,42.805,6.029,13.3018,4.60078,2470.67,2023-5-13T08:28:09Z
2023-05-13T06:28:00Z,42.805,6.029,13.3018,4.60074,2470.717,2023-5-13T08:31:12Z
2023-05-13T06:31:02Z,42.805,6.029,13.3019,4.60077,2470.717,2023-5-13T08:34:14Z
2023-05-13T06:34:05Z,42.805,6.029,13.3018,4.60078,2470.707,2023-5-13T08:37:17Z
2023-05-13T06:37:08Z,42.805,6.029,13.3020,4.60075,2470.693,2023-5-13T08:40:20Z
2023-05-13T06:40:11Z,42.805,6.029,13.3015,4.60079,2470.646,2023-5-13T08:43:23Z
2023-05-13T06:43:14Z,42.805,6.029,13.3017,4.60079,2470.633,2023-5-13T08:46:27Z
2023-05-13T06:46:17Z,42.805,6.029,13.3017,4.60084,2470.693,2023-5-13T08:49:30Z
2023-05-13T06:49:20Z,42.805,6.029,13.3021,4.60084,2470.67,2023-5-13T08:52:33Z
2023-05-13T06:52:23Z,42.805,6.029,13.3020,4.60077,2470.67,2023-5-13T08:55:36Z
2023-05-13T06:55:27Z,42.805,6.029,13.3018,4.60079,2470.67,2023-5-13T08:58:39Z
2023-05-13T06:58:30Z,42.805,6.029,13.3019,4.60079,2470.693,2023-5-13T09:01:42Z
2023-05-13T07:01:33Z,42.805,6.029,13.3016,4.60074,2470.693,2023-5-13T09:04:45Z
2023-05-13T07:04:36Z,42.805,6.029,13.3017,4.60073,2470.693,2023-5-13T09:07:48Z
2023-05-13T07:07:39Z,42.805,6.029,13.3016,4.60081,2470.693,2023-5-13T09:10:51Z
2023-05-13T07:10:42Z,42.805,6.029,13.3014,4.60078,2470.656,2023-5-13T09:13:54Z
2023-05-13T07:13:45Z,42.805,6.029,13.3017,4.60074,2470.67,2023-5-13T09:16:57Z
2023-05-13T07:16:48Z,42.805,6.029,13.3017,4.60085,2470.67,2023-5-13T09:20:00Z
2023-05-13T07:19:51Z,42.805,6.029,13.3015,4.60075,2470.67,2023-5-13T09:23:04Z
2023-05-13T07:22:54Z,42.805,6.029,13.3019,4.60079,2470.693,2023-5-13T09:26:07Z
2023-05-13T07:25:57Z,42.805,6.029,13.3015,4.60077,2470.67,2023-5-13T09:29:10Z
2023-05-13T07:29:00Z,42.805,6.029,13.3015,4.60084,2470.67,2023-5-13T09:32:13Z
2023-05-13T07:32:04Z,42.805,6.029,13.3013,4.60082,2470.693,2023-5-13T09:35:16Z
2023-05-13T07:35:07Z,42.805,6.029,13.3018,4.60078,2470.679,2023-5-13T09:38:19Z
2023-05-13T07:38:10Z,42.805,6.029,13.3014,4.60081,2470.646,2023-5-13T09:41:22Z
2023-05-13T07:41:13Z,42.805,6.029,13.3015,4.60081,2470.656,2023-5-13T09:44:25Z
2023-05-13T07:44:16Z,42.805,6.029,13.3014,4.60080,2470.661,2023-5-13T09:47:28Z
2023-05-13T07:47:19Z,42.805,6.029,13.3017,4.60072,2470.646,2023-5-13T09:50:31Z
2023-05-13T07:50:22Z,42.805,6.029,13.3016,4.60075,2470.646,2023-5-13T09:53:34Z
2023-05-13T07:53:25Z,42.805,6.029,13.3015,4.60089,2470.67,2023-5-13T09:56:37Z
2023-05-13T07:56:28Z,42.805,6.029,13.3020,4.60083,2470.637,2023-5-13T09:59:41Z
2023-05-13T07:59:31Z,42.805,6.029,13.3015,4.60078,2470.661,2023-5-13T10:02:44Z
2023-05-13T08:02:34Z,42.805,6.029,13.3019,4.60082,2470.646,2023-5-13T10:05:47Z
2023-05-13T08:05:37Z,42.805,6.029,13.3016,4.60082,2470.637,2023-5-13T10:08:50Z
2023-05-13T08:08:41Z,42.805,6.029,13.3015,4.60079,2470.684,2023-5-13T10:11:53Z
2023-05-13T08:11:44Z,42.805,6.029,13.3019,4.60074,2470.646,2023-5-13T10:14:56Z
2023-05-13T08:14:47Z,42.805,6.029,13.3018,4.60079,2470.624,2023-5-13T10:17:59Z
2023-05-13T08:17:50Z,42.805,6.029,13.3017,4.60080,2470.646,2023-5-13T10:21:02Z
2023-05-13T08:20:53Z,42.805,6.029,13.3019,4.60076,2470.67,2023-5-13T10:24:05Z
2023-05-13T08:23:56Z,42.805,6.029,13.3017,4.60076,2470.646,2023-5-13T10:27:08Z
2023-05-13T08:26:59Z,42.805,6.029,13.3015,4.60074,2470.624,2023-5-13T10:30:11Z
2023-05-13T08:30:02Z,42.805,6.029,13.3017,4.60079,2470.684,2023-5-13T10:33:14Z
2023-05-13T08:33:05Z,42.805,6.029,13.3016,4.60072,2470.646,2023-5-13T10:36:18Z
2023-05-13T08:36:08Z,42.805,6.029,13.3017,4.60084,2470.646,2023-5-13T10:39:21Z
2023-05-13T08:39:11Z,42.805,6.029,13.3017,4.60078,2470.646,2023-5-13T10:42:24Z
2023-05-13T08:42:14Z,42.805,6.029,13.3016,4.60079,2470.637,2023-5-13T10:45:27Z
2023-05-13T08:45:18Z,42.805,6.029,13.3015,4.60079,2470.661,2023-5-13T10:48:30Z
2023-05-13T08:48:21Z,42.805,6.029,13.3014,4.60077,2470.646,2023-5-13T10:51:33Z
2023-05-13T08:51:24Z,42.805,6.029,13.3012,4.60081,2470.684,2023-5-13T10:54:36Z
2023-05-13T08:54:27Z,42.805,6.029,13.3019,4.60074,2470.661,2023-5-13T10:57:39Z
2023-05-13T08:57:30Z,42.805,6.029,13.3017,4.60079,2470.624,2023-5-13T11:00:42Z
2023-05-13T09:00:33Z,42.805,6.029,13.3013,4.60075,2470.624,2023-5-13T11:03:45Z
2023-05-13T09:03:36Z,42.805,6.029,13.3019,4.60079,2470.6,2023-5-13T11:06:48Z
2023-05-13T09:06:39Z,42.805,6.029,13.3019,4.60072,2470.661,2023-5-13T11:09:52Z
2023-05-13T09:09:42Z,42.805,6.029,13.3013,4.60084,2470.661,2023-5-13T11:12:55Z
2023-05-13T09:12:45Z,42.805,6.029,13.3015,4.60079,2470.661,2023-5-13T11:15:58Z
2023-05-13T09:15:48Z,42.805,6.029,13.3015,4.60077,2470.624,2023-5-13T11:19:01Z
2023-05-13T09:18:52Z,42.805,6.029,13.3015,4.60078,2470.646,2023-5-13T11:22:04Z
2023-05-13T09:21:55Z,42.805,6.029,13.3015,4.60076,2470.661,2023-5-13T11:25:07Z
2023-05-13T09:24:58Z,42.805,6.029,13.3018,4.60077,2470.624,2023-5-13T11:28:10Z
2023-05-13T09:28:01Z,42.805,6.029,13.3018,4.60079,2470.624,2023-5-13T11:31:13Z
2023-05-13T09:31:04Z,42.805,6.029,13.3016,4.60081,2470.6,2023-5-13T11:34:16Z
2023-05-13T09:34:07Z,42.805,6.029,13.3018,4.60081,2470.624,2023-5-13T11:37:19Z
2023-05-13T09:37:10Z,42.805,6.029,13.3015,4.60077,2470.624,2023-5-13T11:40:22Z
2023-05-13T09:40:13Z,42.805,6.029,13.3021,4.60081,2470.646,2023-5-13T11:43:25Z
2023-05-13T09:43:16Z,42.805,6.029,13.3018,4.60078,2470.67,2023-5-13T11:46:29Z
2023-05-13T09:46:19Z,42.805,6.029,13.3016,4.60078,2470.624,2023-5-13T11:49:32Z
2023-05-13T09:49:22Z,42.805,6.029,13.3017,4.60083,2470.624,2023-5-13T11:52:35Z
2023-05-13T09:52:26Z,42.805,6.029,13.3019,4.60076,2470.624,2023-5-13T11:55:38Z
2023-05-13T09:55:29Z,42.805,6.029,13.3018,4.60079,2470.661,2023-5-13T11:58:41Z
2023-05-13T09:58:32Z,42.805,6.029,13.3017,4.60077,2470.646,2023-5-13T12:01:44Z
2023-05-13T10:01:35Z,42.805,6.029,13.3019,4.60074,2470.646,2023-5-13T12:04:47Z
2023-05-13T10:04:38Z,42.805,6.029,13.3019,4.60073,2470.646,2023-5-13T12:07:50Z
2023-05-13T10:07:41Z,42.805,6.029,13.3014,4.60072,2470.661,2023-5-13T12:10:53Z
2023-05-13T10:10:44Z,42.805,6.029,13.3018,4.60075,2470.624,2023-5-13T12:13:56Z
2023-05-13T10:13:47Z,42.805,6.029,13.3020,4.60075,2470.661,2023-5-13T12:16:59Z
2023-05-13T10:16:50Z,42.805,6.029,13.3014,4.60078,2470.656,2023-5-13T12:20:03Z
2023-05-13T10:19:53Z,42.805,6.029,13.3017,4.60074,2470.624,2023-5-13T12:23:06Z
2023-05-13T10:22:56Z,42.805,6.029,13.3016,4.60072,2470.67,2023-5-13T12:26:09Z
2023-05-13T10:25:59Z,42.805,6.029,13.3015,4.60074,2470.661,2023-5-13T12:29:12Z
2023-05-13T10:29:03Z,42.805,6.029,13.3011,4.60078,2470.624,2023-5-13T12:32:15Z
2023-05-13T10:32:06Z,42.805,6.029,13.3015,4.60080,2470.637,2023-5-13T12:35:18Z
2023-05-13T10:35:09Z,42.805,6.029,13.3018,4.60074,2470.624,2023-5-13T12:38:21Z
2023-05-13T10:38:12Z,42.805,6.029,13.3014,4.60074,2470.624,2023-5-13T12:41:24Z
2023-05-13T10:41:15Z,42.805,6.029,13.3019,4.60075,2470.624,2023-5-13T12:44:27Z
2023-05-13T10:44:18Z,42.805,6.029,13.3012,4.60074,2470.661,2023-5-13T12:47:30Z
2023-05-13T10:47:21Z,42.805,6.029,13.3017,4.60078,2470.646,2023-5-13T12:50:33Z
2023-05-13T10:50:24Z,42.805,6.029,13.3020,4.60073,2470.637,2023-5-13T12:53:37Z
2023-05-13T10:53:27Z,42.805,6.029,13.3014,4.60076,2470.624,2023-5-13T12:56:40Z
2023-05-13T10:56:30Z,42.805,6.029,13.3017,4.60077,2470.661,2023-5-13T12:59:43Z
2023-05-13T10:59:33Z,42.805,6.029,13.3021,4.60077,2470.684,2023-5-13T13:02:46Z
2023-05-13T11:02:36Z,42.805,6.029,13.3017,4.60080,2470.646,2023-5-13T13:05:49Z
2023-05-13T11:05:40Z,42.805,6.029,13.3017,4.60080,2470.646,2023-5-13T13:08:52Z
2023-05-13T11:08:43Z,42.805,6.029,13.3019,4.60080,2470.637,2023-5-13T13:11:55Z
2023-05-13T11:11:46Z,42.805,6.029,13.3017,4.60077,2470.67,2023-5-13T13:14:58Z
2023-05-13T11:14:49Z,42.805,6.029,13.3016,4.60074,2470.624,2023-5-13T13:18:01Z
2023-05-13T11:17:52Z,42.805,6.029,13.3016,4.60074,2470.67,2023-5-13T13:21:04Z
2023-05-13T11:20:55Z,42.805,6.029,13.3019,4.60079,2470.67,2023-5-13T13:24:07Z
2023-05-13T11:23:58Z,42.805,6.029,13.3017,4.60085,2470.707,2023-5-13T13:27:10Z
2023-05-13T11:27:01Z,42.805,6.029,13.3015,4.60077,2470.67,2023-5-13T13:30:14Z
2023-05-13T11:30:04Z,42.805,6.029,13.3018,4.60076,2470.646,2023-5-13T13:33:17Z
2023-05-13T11:33:07Z,42.805,6.029,13.3014,4.60080,2470.624,2023-5-13T13:36:20Z
2023-05-13T11:36:10Z,42.805,6.029,13.3014,4.60079,2470.646,2023-5-13T13:39:23Z
2023-05-13T11:39:14Z,42.805,6.029,13.3018,4.60081,2470.67,2023-5-13T13:42:26Z
2023-05-13T11:42:17Z,42.805,6.029,13.3020,4.60080,2470.693,2023-5-13T13:45:29Z
2023-05-13T11:45:20Z,42.805,6.029,13.3015,4.60087,2470.646,2023-5-13T13:48:32Z
2023-05-13T11:48:23Z,42.805,6.029,13.3017,4.60079,2470.684,2023-5-13T13:51:35Z
2023-05-13T11:51:26Z,42.805,6.029,13.3015,4.60077,2470.67,2023-5-13T13:54:38Z
2023-05-13T11:54:29Z,42.805,6.029,13.3019,4.60084,2470.624,2023-5-13T13:57:41Z
2023-05-13T11:57:32Z,42.805,6.029,13.3015,4.60076,2470.67,2023-5-13T14:00:44Z
2023-05-13T12:00:35Z,42.805,6.029,13.3019,4.60073,2470.646,2023-5-13T14:03:48Z
2023-05-13T12:03:38Z,42.805,6.029,13.3019,4.60079,2470.707,2023-5-13T14:06:51Z
2023-05-13T12:06:41Z,42.805,6.029,13.3021,4.60075,2470.684,2023-5-13T14:09:54Z
2023-05-13T12:09:44Z,42.805,6.029,13.3014,4.60082,2470.67,2023-5-13T14:12:57Z
2023-05-13T12:12:48Z,42.805,6.029,13.3016,4.60074,2470.684,2023-5-13T14:16:00Z
2023-05-13T12:15:51Z,42.805,6.029,13.3014,4.60079,2470.661,2023-5-13T14:19:03Z
2023-05-13T12:18:54Z,42.805,6.029,13.3014,4.60077,2470.661,2023-5-13T14:22:06Z
2023-05-13T12:21:57Z,42.805,6.029,13.3015,4.60081,2470.693,2023-5-13T14:25:09Z
2023-05-13T12:25:00Z,42.805,6.029,13.3015,4.60081,2470.693,2023-5-13T14:28:12Z
2023-05-13T12:28:03Z,42.805,6.029,13.3018,4.60074,2470.693,2023-5-13T14:31:15Z
2023-05-13T12:31:07Z,42.805,6.029,13.3016,4.60073,2470.67,2023-5-13T14:34:20Z
2023-05-13T12:34:10Z,42.805,6.029,13.3019,4.60075,2470.646,2023-5-13T14:37:23Z
2023-05-13T12:37:13Z,42.805,6.029,13.3013,4.60074,2470.661,2023-5-13T14:40:26Z
2023-05-13T12:40:16Z,42.805,6.029,13.3016,4.60074,2470.684,2023-5-13T14:43:29Z
2023-05-13T12:43:20Z,42.805,6.029,13.3014,4.60072,2470.67,2023-5-13T14:46:32Z
2023-05-13T12:46:23Z,42.805,6.029,13.3015,4.60077,2470.67,2023-5-13T14:49:35Z
2023-05-13T12:49:26Z,42.805,6.029,13.3017,4.60074,2470.67,2023-5-13T14:52:38Z
2023-05-13T12:52:29Z,42.805,6.029,13.3016,4.60073,2470.693,2023-5-13T14:55:41Z
2023-05-13T12:55:32Z,42.805,6.029,13.3017,4.60087,2470.67,2023-5-13T14:58:44Z
2023-05-13T12:58:35Z,42.805,6.029,13.3019,4.60079,2470.67,2023-5-13T15:01:47Z
2023-05-13T13:01:38Z,42.805,6.029,13.3016,4.60076,2470.684,2023-5-13T15:04:50Z
2023-05-13T13:04:41Z,42.805,6.029,13.3017,4.60081,2470.693,2023-5-13T15:07:54Z
2023-05-13T13:07:44Z,42.805,6.029,13.3019,4.60078,2470.693,2023-5-13T15:10:57Z
2023-05-13T13:10:47Z,42.805,6.029,13.3015,4.60079,2470.67,2023-5-13T15:14:00Z
2023-05-13T13:13:50Z,42.805,6.029,13.3015,4.60074,2470.67,2023-5-13T15:17:03Z
2023-05-13T13:16:53Z,42.805,6.029,13.3015,4.60074,2470.707,2023-5-13T15:20:06Z
2023-05-13T13:19:57Z,42.805,6.029,13.3017,4.60078,2470.707,2023-5-13T15:23:09Z
2023-05-13T13:23:00Z,42.805,6.029,13.3015,4.60073,2470.646,2023-5-13T15:26:12Z
2023-05-13T13:26:03Z,42.805,6.029,13.3013,4.60079,2470.67,2023-5-13T15:29:15Z
2023-05-13T13:29:06Z,42.805,6.029,13.3017,4.60074,2470.67,2023-5-13T15:32:18Z
2023-05-13T13:32:09Z,42.805,6.029,13.3016,4.60077,2470.661,2023-5-13T15:35:21Z
2023-05-13T13:35:12Z,42.805,6.029,13.3018,4.60075,2470.693,2023-5-13T15:38:24Z
2023-05-13T13:38:15Z,42.805,6.029,13.3019,4.60081,2470.67,2023-5-13T15:41:27Z
2023-05-13T13:41:18Z,42.805,6.029,13.3016,4.60079,2470.67,2023-5-13T15:44:31Z
2023-05-13T13:44:21Z,42.805,6.029,13.3014,4.60078,2470.684,2023-5-13T15:47:34Z
2023-05-13T13:47:24Z,42.805,6.029,13.3014,4.60079,2470.684,2023-5-13T15:50:37Z
2023-05-13T13:50:27Z,42.805,6.029,13.3017,4.60077,2470.67,2023-5-13T15:53:40Z
2023-05-13T13:53:30Z,42.805,6.029,13.3014,4.60084,2470.717,2023-5-13T15:56:43Z
2023-05-13T13:56:34Z,42.805,6.029,13.3017,4.60076,2470.67,2023-5-13T15:59:46Z
2023-05-13T13:59:37Z,42.805,6.029,13.3018,4.60077,2470.717,2023-5-13T16:02:49Z
2023-05-13T14:02:40Z,42.805,6.029,13.3014,4.60077,2470.707,2023-5-13T16:05:52Z
2023-05-13T14:05:43Z,42.805,6.029,13.3015,4.60074,2470.693,2023-5-13T16:08:55Z
2023-05-13T14:08:46Z,42.805,6.029,13.3016,4.60076,2470.693,2023-5-13T16:11:58Z
2023-05-13T14:11:49Z,42.805,6.029,13.3015,4.60075,2470.67,2023-5-13T16:15:01Z
2023-05-13T14:14:52Z,42.805,6.029,13.3015,4.60077,2470.67,2023-5-13T16:18:05Z
2023-05-13T14:17:55Z,42.805,6.029,13.3014,4.60076,2470.693,2023-5-13T16:21:08Z
2023-05-13T14:20:58Z,42.805,6.029,13.3016,4.60079,2470.684,2023-5-13T16:24:11Z
2023-05-13T14:24:01Z,42.805,6.029,13.3015,4.60075,2470.67,2023-5-13T16:27:14Z
2023-05-13T14:27:04Z,42.805,6.029,13.3015,4.60079,2470.693,2023-5-13T16:30:17Z
2023-05-13T14:30:10Z,42.805,6.029,13.3016,4.60077,2470.693,2023-5-13T16:33:22Z
2023-05-13T14:33:13Z,42.805,6.029,13.3020,4.60075,2470.67,2023-5-13T16:36:25Z
2023-05-13T14:36:16Z,42.805,6.029,13.3015,4.60076,2470.684,2023-5-13T16:39:28Z
2023-05-13T14:39:19Z,42.805,6.029,13.3016,4.60074,2470.707,2023-5-13T16:42:32Z
2023-05-13T14:42:22Z,42.805,6.029,13.3016,4.60075,2470.67,2023-5-13T16:45:35Z
2023-05-13T14:45:25Z,42.805,6.029,13.3013,4.60077,2470.707,2023-5-13T16:48:38Z
2023-05-13T14:48:28Z,42.805,6.029,13.3018,4.60078,2470.693,2023-5-13T16:51:41Z
2023-05-13T14:51:31Z,42.805,6.029,13.3012,4.60078,2470.67,2023-5-13T16:54:44Z
2023-05-13T14:54:35Z,42.805,6.029,13.3019,4.60076,2470.693,2023-5-13T16:57:47Z
2023-05-13T14:57:38Z,42.805,6.029,13.3017,4.60076,2470.684,2023-5-13T17:00:50Z
2023-05-13T15:00:41Z,42.805,6.029,13.3014,4.60075,2470.646,2023-5-13T17:03:53Z
2023-05-13T15:03:44Z,42.805,6.029,13.3016,4.60079,2470.693,2023-5-13T17:06:56Z
2023-05-13T15:06:47Z,42.805,6.029,13.3015,4.60072,2470.693,2023-5-13T17:09:59Z
2023-05-13T15:09:50Z,42.805,6.029,13.3015,4.60076,2470.73,2023-5-13T17:13:02Z
2023-05-13T15:12:53Z,42.805,6.029,13.3016,4.60076,2470.67,2023-5-13T17:16:06Z